Location: ??
(34.9170°N, 135.5016°E)
Time: 12:31:48
(UTC+00:00)

ATLAS CENTAUR R/B - Pass Details

Date: 29 October 2020
Orbit: 478 x 667 km, 64.7° (Epoch: 22 November)

Event Time Altitude Azimuth Distance (km) Brightness Sun altitude
Exits shadow 19:03:44 - 171° (S) 2,630 4.9 -27.8°
Reaches altitude 10° 19:06:25 10° 151° (SSE) 1,778 4.2 -27.3°
Maximum altitude 19:08:55 16° 111° (ESE) 1,396 4.1 -26.8°
Drops below altitude 10° 19:11:22 10° 72° (ENE) 1,724 4.8 -26.2°
Sets 19:14:05 0° 50° (NE) 2,584 5.5 -25.7°
